Location: ??
(31.9467°N, 34.8903°E)
Time: 01:32:59
(UTC+00:00)

Geosat - Pass Details

Date: 29 October 2020
Orbit: 763 x 766 km, 108.0° (Epoch: 25 November)

Event Time Altitude Azimuth Distance (km) Brightness Sun altitude
Exits shadow 16:12:40 - 27° (NNE) 2,368 6.2 -17.4°
Reaches altitude 10° 16:12:50 10° 27° (NNE) 2,305 6.2 -17.4°
Maximum altitude 16:17:51 78° 113° (ESE) 785 3.9 -18.5°
Drops below altitude 10° 16:22:52 10° 200° (SSW) 2,293 6.8 -19.6°
Sets 16:25:08 0° 202° (SSW) 3,216 7.6 -20.0°
